Location: Wildlife_Club
(35.6000°N, 81.4330°W)
Time: 18:18:37
(UTC-04:00)

Vanguard 2 Rocket - Pass Details

Date: 27 June 2019
Orbit: 554 x 3326 km, 32.9° (Epoch: 19 July)

Event Time Altitude Azimuth Distance (km) Brightness Sun altitude
Rises 22:16:30 0° 255° (WSW) 3,336 10.2 -15.6°
Reaches altitude 10° 22:18:31 10° 253° (WSW) 2,608 9.6 -15.9°
Maximum altitude 22:24:45 71° 170° (S) 1,362 7.5 -16.7°
Drops below altitude 10° 22:36:05 10° 89° (E) 4,561 10.1 -18.3°
Sets 22:40:45 0° 88° (E) 6,017 10.7 -18.9°
